Weather History for KAVC - January, 2012

Change the Weather History Date:

Sunday, January 22, 2012

  Actual Average (KEMV) Record (KEMV)
Temperature  
Mean Temperature 32 °F -  
Max Temperature 33 °F 45 °F 65 °F (1990)
Min Temperature 30 °F 21 °F -2 °F (1985)
Degree Days  
Heating Degree Days 34    
Moisture  
Dew Point 31 °F    
Average Humidity 96    
Maximum Humidity 100    
Minimum Humidity 87    
Precipitation  
Precipitation 0.00 in - - ()
Sea Level Pressure  
Sea Level Pressure 30.39 in    
Wind  
Wind Speed 8 mph (NNE)    
Max Wind Speed 13 mph    
Max Gust Speed 16 mph    
Visibility 5 miles    
Events      
Averages and records for this station are not official NWS values.
T = Trace of Precipitation, MM = Missing Value Source: NWS Daily Summary

Daily Weather History Graph

Daily Weather History Graph

Search for Another Location

Airport or City:

Trip Planner

Search our weather history database for the weather conditions in past years. The results will help you decide how hot, cold, wet, or windy it might be!

Date:

Astronomy

Jan. 22, 2012 Rise Set
Actual Time 7:21 AM EST 5:26 PM EST
Civil Twilight 6:53 AM EST 5:54 PM EST
Nautical Twilight 6:21 AM EST 6:25 PM EST
Astronomical Twilight 5:51 AM EST 6:56 PM EST
Moon 6:36 AM EST (1/22) 5:06 PM EST (1/22)
Length of Visible Light 11h 01m
Length of Day
10h 05m
Waning Crescent, 0% of the Moon is Illuminated
Jan 22
Waning Crescent
Jan 23
New
Jan 30
First Quarter
Feb 7
Full
Feb 14
Last Quarter

Hourly Weather History & Observations

Time (EST) Temp. Windchill Dew Point Humidity Pressure Visibility Wind Dir Wind Speed Gust Speed Precip Events Conditions
12:15 AM 32.0 °F 22.5 °F 28.4 °F 87% 30.28 in 10.0 mi North 12.7 mph 16.1 mph N/A   Overcast
12:35 AM 32.0 °F 24.8 °F 28.4 °F 87% 30.28 in 10.0 mi NNE 8.1 mph - N/A   Overcast
12:55 AM 32.0 °F 26.4 °F 28.4 °F 87% 30.29 in 10.0 mi NNE 5.8 mph - N/A   Overcast
1:15 AM 32.0 °F 24.8 °F 28.4 °F 87% 30.30 in 10.0 mi North 8.1 mph - N/A   Overcast
1:35 AM 30.2 °F 23.4 °F 28.4 °F 93% 30.31 in 10.0 mi NNE 6.9 mph - N/A   Overcast
1:55 AM 30.2 °F 21.3 °F 28.4 °F 93% 30.31 in 10.0 mi North 10.4 mph - N/A   Overcast
2:15 AM 30.2 °F 23.4 °F 28.4 °F 93% 30.31 in 10.0 mi North 6.9 mph - N/A   Overcast
2:35 AM 30.2 °F 22.6 °F 28.4 °F 93% 30.30 in 10.0 mi NNE 8.1 mph - N/A   Overcast
2:55 AM 30.2 °F 22.6 °F 28.4 °F 93% 30.31 in 10.0 mi North 8.1 mph - N/A   Overcast
3:15 AM 30.2 °F 22.6 °F 28.4 °F 93% 30.32 in 7.0 mi NNE 8.1 mph - N/A   Overcast
3:35 AM 30.2 °F 21.9 °F 28.4 °F 93% 30.34 in 7.0 mi North 9.2 mph - N/A   Overcast
3:55 AM 30.2 °F 22.6 °F 28.4 °F 93% 30.35 in 7.0 mi North 8.1 mph - N/A   Overcast
4:15 AM 30.2 °F 22.6 °F 28.4 °F 93% 30.36 in 5.0 mi North 8.1 mph 16.1 mph N/A   Overcast
4:35 AM 30.2 °F 23.4 °F 28.4 °F 93% 30.35 in 5.0 mi NNE 6.9 mph - N/A   Overcast
4:55 AM 30.2 °F 23.4 °F 28.4 °F 93% 30.35 in 5.0 mi NNE 6.9 mph - N/A   Overcast
5:15 AM 30.2 °F 25.4 °F 28.4 °F 93% 30.35 in 5.0 mi NNE 4.6 mph - N/A   Overcast
5:35 AM 30.2 °F 23.4 °F 28.4 °F 93% 30.35 in 5.0 mi North 6.9 mph - N/A   Overcast
6:15 AM 30.2 °F 24.3 °F 28.4 °F 93% 30.36 in 5.0 mi North 5.8 mph - N/A   Overcast
6:35 AM 30.2 °F 24.3 °F 28.4 °F 93% 30.36 in 7.0 mi NNE 5.8 mph - N/A   Overcast
6:55 AM 30.2 °F 25.4 °F 28.4 °F 93% 30.36 in 7.0 mi NNE 4.6 mph - N/A   Overcast
7:15 AM 30.2 °F 22.6 °F 28.4 °F 93% 30.37 in 5.0 mi North 8.1 mph - N/A   Overcast
7:55 AM 30.2 °F 22.6 °F 30.2 °F 100% 30.38 in 5.0 mi North 8.1 mph - N/A   Overcast
8:15 AM 30.2 °F 22.6 °F 30.2 °F 100% 30.40 in 5.0 mi North 8.1 mph - N/A   Overcast
8:35 AM 30.2 °F 25.4 °F 30.2 °F 100% 30.42 in 4.0 mi NNE 4.6 mph - N/A   Overcast
9:15 AM 30.2 °F 23.4 °F 30.2 °F 100% 30.44 in 2.0 mi North 6.9 mph - N/A   Overcast
9:35 AM 30.2 °F 22.6 °F 30.2 °F 100% 30.43 in 1.8 mi North 8.1 mph - N/A   Overcast
9:55 AM 30.2 °F 24.3 °F 30.2 °F 100% 30.44 in 2.5 mi NNE 5.8 mph - N/A   Overcast
10:15 AM 30.2 °F 22.6 °F 30.2 °F 100% 30.45 in 2.5 mi North 8.1 mph - N/A   Overcast
10:35 AM 30.2 °F 23.4 °F 30.2 °F 100% 30.45 in 2.5 mi North 6.9 mph - N/A   Overcast
10:55 AM 32.0 °F 25.6 °F 30.2 °F 93% 30.45 in 3.0 mi North 6.9 mph - N/A   Overcast
11:15 AM 32.0 °F 25.6 °F 30.2 °F 93% 30.45 in 3.0 mi North 6.9 mph - N/A   Overcast
11:35 AM 32.0 °F 24.8 °F 32.0 °F 100% 30.45 in 3.0 mi North 8.1 mph - N/A   Overcast
11:55 AM 32.0 °F 26.4 °F 32.0 °F 100% 30.44 in 2.5 mi North 5.8 mph - N/A   Overcast
12:15 PM 33.8 °F 27.7 °F 32.0 °F 93% 30.43 in 4.0 mi NNE 6.9 mph - N/A   Overcast
12:35 PM 33.8 °F 28.6 °F 32.0 °F 93% 30.43 in 4.0 mi North 5.8 mph - N/A   Overcast
12:55 PM 33.8 °F 30.8 °F 32.0 °F 93% 30.42 in 7.0 mi NNE 3.5 mph - N/A   Overcast
1:15 PM 33.8 °F 26.4 °F 32.0 °F 93% 30.41 in 7.0 mi North 9.2 mph - N/A   Overcast
1:35 PM 33.8 °F 27.7 °F 33.8 °F 100% 30.42 in 5.0 mi North 6.9 mph - N/A   Overcast
1:55 PM 33.8 °F 27.7 °F 33.8 °F 100% 30.41 in 4.0 mi NNE 6.9 mph - N/A   Overcast
2:15 PM 33.8 °F 29.6 °F 33.8 °F 100% 30.41 in 5.0 mi North 4.6 mph - N/A   Overcast
2:35 PM 33.8 °F 28.6 °F 33.8 °F 100% 30.40 in 5.0 mi North 5.8 mph - N/A   Overcast
2:55 PM 33.8 °F 28.6 °F 33.8 °F 100% 30.40 in 5.0 mi North 5.8 mph - N/A   Overcast
3:15 PM 33.8 °F 28.6 °F 33.8 °F 100% 30.40 in 5.0 mi North 5.8 mph - N/A   Overcast
3:35 PM 33.8 °F 29.6 °F 33.8 °F 100% 30.41 in 5.0 mi North 4.6 mph - N/A   Overcast
3:55 PM 33.8 °F 29.6 °F 33.8 °F 100% 30.41 in 5.0 mi North 4.6 mph - N/A   Overcast
4:15 PM 33.8 °F 29.6 °F 33.8 °F 100% 30.41 in 4.0 mi NNE 4.6 mph - N/A   Overcast
4:35 PM 33.8 °F 29.6 °F 33.8 °F 100% 30.41 in 4.0 mi NNE 4.6 mph - N/A   Overcast
4:55 PM 33.8 °F 29.6 °F 33.8 °F 100% 30.41 in 5.0 mi North 4.6 mph - N/A   Overcast
5:15 PM 33.8 °F 29.6 °F 33.8 °F 100% 30.41 in 4.0 mi North 4.6 mph - N/A   Overcast
5:35 PM 33.8 °F 29.6 °F 33.8 °F 100% 30.41 in 3.0 mi North 4.6 mph - N/A   Overcast
5:55 PM 33.8 °F 29.6 °F 33.8 °F 100% 30.41 in 2.5 mi North 4.6 mph - N/A   Overcast
6:15 PM 33.8 °F 30.8 °F 33.8 °F 100% 30.42 in 2.0 mi North 3.5 mph - N/A   Overcast
6:35 PM 33.8 °F 30.8 °F 32.0 °F 93% 30.41 in 2.0 mi NNE 3.5 mph - N/A   Overcast
6:55 PM - - - N/A% 30.42 in 1.5 mi North 4.6 mph - N/A   Overcast
7:15 PM 33.8 °F 27.7 °F 33.8 °F 100% 30.42 in 1.2 mi North 6.9 mph - N/A   Overcast
7:35 PM 33.8 °F 30.8 °F 33.8 °F 100% 30.42 in 1.2 mi NNE 3.5 mph - N/A   Overcast
7:55 PM 33.8 °F 30.8 °F 33.8 °F 100% 30.41 in 1.2 mi North 3.5 mph - N/A   Overcast
8:15 PM 33.8 °F 30.8 °F 33.8 °F 100% 30.41 in 1.2 mi NE 3.5 mph - N/A   Overcast
8:35 PM 33.8 °F - 33.8 °F 100% 30.40 in 1.0 mi Calm Calm - N/A   Overcast
8:55 PM 33.8 °F - 33.8 °F 100% 30.40 in 1.0 mi Calm Calm - N/A   Overcast
9:15 PM 33.8 °F - 33.8 °F 100% 30.40 in 1.0 mi Calm Calm - N/A   Overcast
9:35 PM 33.8 °F 29.6 °F 33.8 °F 100% 30.41 in 1.0 mi North 4.6 mph - N/A   Overcast
9:55 PM 33.8 °F 28.6 °F 33.8 °F 100% 30.40 in 0.8 mi North 5.8 mph - N/A   Overcast
10:15 PM 33.8 °F - 33.8 °F 100% 30.39 in 0.8 mi Calm Calm - N/A   Overcast
10:35 PM 33.8 °F 30.8 °F 33.8 °F 100% 30.39 in 1.0 mi North 3.5 mph - N/A   Overcast
10:55 PM 33.8 °F 30.8 °F 33.8 °F 100% 30.38 in 1.0 mi NNE 3.5 mph - N/A   Mist
11:15 PM 33.8 °F 30.8 °F 33.8 °F 100% 30.37 in 0.8 mi North 3.5 mph - N/A   Overcast
11:35 PM 33.8 °F - 33.8 °F 100% 30.37 in 0.5 mi Calm Calm - N/A Fog Fog
11:55 PM 33.8 °F 30.8 °F 33.8 °F 100% 30.36 in 0.5 mi North 3.5 mph - N/A Fog Fog